Find Starlink 11194

NORAD ID: 60187 Int'l Des: 2024-124 Owner: SPXS Country: US Constellation: starlink operational
LEOCIRCULAR

当前视图

正在加载3D地球...

About Starlink 11194

Starlink 11194 (NORAD 60187) is a starlink constellation satellite (v2 mini d2c) launched Jul 3, 2024 by SPXS of US. It operates in LEO, CIRCULAR orbit with a mass of 960.00 kg.

关于 Starlink 11194

正在加载描述...

即将过境

Passes for default location (London). Set your location on the main map for personalized predictions.

高度历史

Loading altitude history...

两行轨道根数

1 60187U 24124E 26171.29516528 -.00000110 00000-0 39431-5 0 9998
2 60187 53.1590 15.1385 0000755 90.1829 269.9276 15.69708963112656
Epoch: Jun 20, 2026 • Age: 41 hours

当前状态

高度 377.6 km
速度 7.68 km/s
星下点 -50.46°S, 17.31°W
发射日期 Jul 3, 2024
运行时间 1.9 years
类型 internet

技术详情

分类 Payload
质量 960.00 kg
干质量 910.00 kg
总质量 960.00 kg
长度 0.30 m
直径 4.10 m
跨度 29.00 m
形状 Box + pan
制造商 SPXS
平台类型 Starlink V2MD
阶段状态 In Orbit
所有者/国家 SPXS/US

Most Searched